TimeCDT,TemperatureF,Dew PointF,Humidity,Sea Level PressureIn,VisibilityMPH,Wind Direction,Wind SpeedMPH,Gust SpeedMPH,PrecipitationIn,Events,Conditions,WindDirDegrees,DateUTC
12:53 AM,64.0,57.9,80,30.08,10.0,Calm,Calm,-,N/A,,Clear,0,2013-09-16 05:53:00
1:53 AM,64.0,57.0,78,30.08,10.0,Calm,Calm,-,N/A,,Clear,0,2013-09-16 06:53:00
2:53 AM,63.0,55.0,75,30.07,10.0,Calm,Calm,-,N/A,,Clear,0,2013-09-16 07:53:00
3:53 AM,63.0,55.9,78,30.07,10.0,Calm,Calm,-,N/A,,Clear,0,2013-09-16 08:53:00
4:53 AM,63.0,57.9,84,30.06,10.0,Calm,Calm,-,N/A,,Clear,0,2013-09-16 09:53:00
5:53 AM,62.1,57.9,86,30.08,10.0,Calm,Calm,-,N/A,,Clear,0,2013-09-16 10:53:00
6:53 AM,63.0,57.9,84,30.10,10.0,Calm,Calm,-,N/A,,Clear,0,2013-09-16 11:53:00
7:53 AM,66.9,61.0,81,30.12,10.0,Calm,Calm,-,N/A,,Partly Cloudy,0,2013-09-16 12:53:00
8:53 AM,73.9,61.0,64,30.13,10.0,Calm,Calm,-,N/A,,Clear,0,2013-09-16 13:53:00
9:53 AM,81.0,64.0,56,30.13,10.0,Calm,Calm,-,N/A,,Scattered Clouds,0,2013-09-16 14:53:00
10:53 AM,88.0,66.9,49,30.14,10.0,WNW,3.5,-,N/A,,Clear,290,2013-09-16 15:53:00
11:53 AM,91.0,66.9,45,30.13,10.0,Variable,4.6,-,N/A,,Clear,0,2013-09-16 16:53:00
12:53 PM,91.0,62.1,38,30.11,10.0,Calm,Calm,-,N/A,,Scattered Clouds,0,2013-09-16 17:53:00
1:53 PM,95.0,61.0,32,30.09,10.0,North,10.4,-,N/A,,Partly Cloudy,360,2013-09-16 18:53:00
2:53 PM,95.0,63.0,34,30.06,10.0,NNE,8.1,-,N/A,,Partly Cloudy,20,2013-09-16 19:53:00
3:53 PM,91.0,60.1,35,30.05,10.0,NNE,8.1,-,N/A,,Clear,20,2013-09-16 20:53:00
4:53 PM,93.9,59.0,31,30.04,10.0,North,5.8,-,N/A,,Clear,10,2013-09-16 21:53:00
5:53 PM,91.0,57.0,32,30.04,10.0,NNE,8.1,-,N/A,,Clear,20,2013-09-16 22:53:00
6:53 PM,84.9,57.9,40,30.04,10.0,NNE,5.8,-,N/A,,Clear,30,2013-09-16 23:53:00
7:53 PM,81.0,57.0,44,30.05,10.0,NNE,8.1,-,N/A,,Clear,30,2013-09-17 00:53:00
8:53 PM,78.1,57.9,50,30.07,10.0,NNE,6.9,-,N/A,,Clear,20,2013-09-17 01:53:00
9:53 PM,73.9,57.9,57,30.09,10.0,NE,6.9,-,N/A,,Clear,40,2013-09-17 02:53:00
10:53 PM,72.0,57.9,61,30.10,10.0,NNE,5.8,-,N/A,,Clear,30,2013-09-17 03:53:00
11:53 PM,72.0,57.9,61,30.11,10.0,NE,6.9,-,N/A,,Overcast,40,2013-09-17 04:53:00